Weather History for Caldwell, ID

Change the Weather History Date:

Thursday, February 28, 2013

  Actual Average (KBOI) Record (KBOI)
Temperature  
Mean Temperature 40 °F 40 °F  
Max Temperature 46 °F 50 °F 66 °F (1988)
Min Temperature 33 °F 31 °F -1 °F (1890)
Degree Days  
Heating Degree Days 26 25  
Month to date heating degree days 798  
Since 1 July heating degree days 4159  
Cooling Degree Days 0 0  
Month to date cooling degree days 0  
Year to date cooling degree days 0  
Moisture  
Dew Point 27 °F    
Average Humidity 63    
Maximum Humidity 87    
Minimum Humidity 45    
Precipitation  
Precipitation 0.03 in 0.04 in 0.39 in (1946)
Month to date precipitation 0.99  
Year to date precipitation 2.23  
Snow  
Snow 0.00 in 0.10 in 1.60 in (1977)
Month to date snowfall 2.8  
Since 1 July snowfall 17.6  
Snow Depth -    
Sea Level Pressure  
Sea Level Pressure 30.40 in    
Wind  
Wind Speed 6 mph (SSE)    
Max Wind Speed 14 mph    
Max Gust Speed -    
Visibility 9 miles    
Events      
T = Trace of Precipitation, MM = Missing Value Source: NWS Daily Summary

Daily Weather History Graph

Daily Weather History Graph

Search for Another Location

Airport:

Trip Planner

Search our weather history database for the weather conditions in past years. The results will help you decide how hot, cold, wet, or windy it might be!

Date:

Astronomy

Feb. 28, 2013 Rise Set
Actual Time 7:24 AM MST 6:34 PM MST
Civil Twilight 6:55 AM MST 7:03 PM MST
Nautical Twilight 6:22 AM MST 7:36 PM MST
Astronomical Twilight 5:49 AM MST 8:09 PM MST
Moon 10:15 PM MST (2/28) 8:29 AM MST (2/28)
Length of Visible Light 12h 07m
Length of Day
11h 10m
Waning Gibbous, 90% of the Moon is Illuminated
Feb 28
Waning Gibbous
Mar 4
Last Quarter
Mar 11
New
Mar 19
First Quarter
Mar 27
Full

Hourly Weather History & Observations

Time (MST) Temp. Windchill Dew Point Humidity Pressure Visibility Wind Dir Wind Speed Gust Speed Precip Events Conditions
12:15 AM 35.6 °F 30.7 °F 21.2 °F 56% 30.32 in 10.0 mi ESE 5.8 mph - N/A   Overcast
12:35 AM 33.8 °F 27.0 °F 21.2 °F 60% 30.32 in 10.0 mi ESE 8.1 mph - N/A   Scattered Clouds
12:55 AM 33.8 °F 29.6 °F 21.2 °F 60% 30.32 in 10.0 mi SSE 4.6 mph - N/A   Clear
1:15 AM 35.6 °F 32.8 °F 21.2 °F 56% 30.32 in 10.0 mi SW 3.5 mph - N/A   Clear
1:35 AM 35.6 °F - 21.2 °F 56% 30.33 in 10.0 mi Calm Calm - N/A   Mostly Cloudy
1:55 AM 33.8 °F 29.6 °F 21.2 °F 60% 30.32 in 10.0 mi South 4.6 mph - N/A   Mostly Cloudy
2:15 AM 33.8 °F 30.8 °F 19.4 °F 56% 30.33 in 10.0 mi SSE 3.5 mph - N/A   Overcast
2:55 AM 35.6 °F 31.7 °F 21.2 °F 56% 30.33 in 10.0 mi South 4.6 mph - N/A   Overcast
3:35 AM 35.6 °F 28.6 °F 19.4 °F 52% 30.34 in 10.0 mi South 9.2 mph - N/A   Overcast
3:55 AM 35.6 °F 28.6 °F 19.4 °F 52% 30.34 in 10.0 mi SSE 9.2 mph - N/A   Overcast
4:15 AM 35.6 °F 29.2 °F 19.4 °F 52% 30.34 in 10.0 mi South 8.1 mph - N/A   Overcast
4:35 AM 35.6 °F 29.9 °F 19.4 °F 52% 30.34 in 10.0 mi SE 6.9 mph - N/A   Overcast
4:55 AM 35.6 °F 31.7 °F 19.4 °F 52% 30.34 in 10.0 mi South 4.6 mph - N/A   Overcast
5:15 AM 35.6 °F 32.8 °F 21.2 °F 56% 30.35 in 10.0 mi SSW 3.5 mph - N/A   Overcast
5:35 AM 33.8 °F 28.6 °F 19.4 °F 56% 30.35 in 10.0 mi South 5.8 mph - N/A   Overcast
5:55 AM 33.8 °F 27.7 °F 21.2 °F 60% 30.36 in 10.0 mi South 6.9 mph - N/A   Overcast
6:15 AM 33.8 °F 29.6 °F 21.2 °F 60% 30.36 in 10.0 mi SSW 4.6 mph - N/A   Overcast
6:35 AM 33.8 °F 27.0 °F 19.4 °F 56% 30.36 in 10.0 mi South 8.1 mph - N/A   Overcast
6:55 AM 35.6 °F 29.2 °F 21.2 °F 56% 30.36 in 10.0 mi South 8.1 mph - N/A   Overcast
7:15 AM 35.6 °F 29.9 °F 21.2 °F 56% 30.36 in 10.0 mi South 6.9 mph - N/A   Overcast
7:35 AM 33.8 °F 27.7 °F 21.2 °F 60% 30.36 in 10.0 mi SE 6.9 mph - N/A   Mostly Cloudy
7:55 AM 35.6 °F 27.5 °F 19.4 °F 52% 30.36 in 10.0 mi SE 11.5 mph - N/A   Mostly Cloudy
8:15 AM 35.6 °F 29.9 °F 21.2 °F 56% 30.38 in 10.0 mi SSE 6.9 mph - N/A   Mostly Cloudy
8:35 AM 35.6 °F 30.7 °F 21.2 °F 56% 30.39 in 10.0 mi SSE 5.8 mph - N/A   Overcast
8:55 AM 35.6 °F 28.6 °F 21.2 °F 56% 30.39 in 10.0 mi SSE 9.2 mph - N/A   Overcast
9:35 AM 37.4 °F 28.9 °F 21.2 °F 52% 30.41 in 10.0 mi SE 13.8 mph - N/A   Overcast
9:55 AM 37.4 °F 30.3 °F 21.2 °F 52% 30.40 in 10.0 mi SE 10.4 mph - N/A   Mostly Cloudy
10:15 AM 39.2 °F 31.6 °F 21.2 °F 49% 30.40 in 10.0 mi SE 12.7 mph - N/A   Clear
10:35 AM 41.0 °F 34.7 °F 21.2 °F 45% 30.40 in 10.0 mi SE 10.4 mph - N/A   Mostly Cloudy
10:55 AM 42.8 °F 39.3 °F 23.0 °F 46% 30.40 in 10.0 mi South 5.8 mph - N/A   Overcast
11:15 AM 42.8 °F 41.1 °F 24.8 °F 49% 30.41 in 10.0 mi SE 3.5 mph - N/A   Overcast
11:35 AM 44.6 °F 39.7 °F 24.8 °F 46% 30.41 in 10.0 mi SSE 9.2 mph - N/A   Overcast
11:55 AM 44.6 °F 41.4 °F 24.8 °F 46% 30.41 in 10.0 mi SSE 5.8 mph - N/A   Overcast
12:15 PM 44.6 °F 42.2 °F 26.6 °F 49% 30.41 in 10.0 mi SE 4.6 mph - N/A   Overcast
12:35 PM 44.6 °F - 28.4 °F 53% 30.41 in 10.0 mi Calm Calm - N/A   Overcast
12:55 PM 44.6 °F - 30.2 °F 57% 30.41 in 10.0 mi Calm Calm - N/A   Overcast
1:15 PM 44.6 °F - 30.2 °F 57% 30.41 in 10.0 mi Calm Calm - 0.01 in   Overcast
1:35 PM 44.6 °F - 30.2 °F 57% 30.41 in 10.0 mi Calm Calm - 0.01 in   Overcast
1:55 PM 44.6 °F - 30.2 °F 57% 30.41 in 10.0 mi Calm Calm - 0.01 in   Overcast
2:15 PM 44.6 °F 43.1 °F 32.0 °F 61% 30.40 in 10.0 mi ENE 3.5 mph - N/A   Overcast
2:35 PM 44.6 °F 40.2 °F 33.8 °F 66% 30.39 in 10.0 mi ENE 8.1 mph - N/A   Overcast
2:55 PM 44.6 °F 40.2 °F 33.8 °F 66% 30.38 in 10.0 mi ENE 8.1 mph - N/A   Overcast
3:15 PM 44.6 °F 41.4 °F 33.8 °F 66% 30.38 in 10.0 mi East 5.8 mph - N/A   Overcast
3:35 PM 44.6 °F 40.7 °F 33.8 °F 66% 30.39 in 10.0 mi East 6.9 mph - N/A   Overcast
3:55 PM 46.4 °F 42.4 °F 33.8 °F 62% 30.39 in 10.0 mi ESE 8.1 mph - N/A   Overcast
4:15 PM 46.4 °F 42.9 °F 35.6 °F 66% 30.39 in 10.0 mi NE 6.9 mph - N/A   Overcast
4:35 PM 44.6 °F 40.7 °F 35.6 °F 71% 30.40 in 10.0 mi NNE 6.9 mph - N/A   Overcast
4:55 PM 44.6 °F 40.2 °F 35.6 °F 71% 30.40 in 10.0 mi NNE 8.1 mph - N/A   Overcast
5:15 PM 44.6 °F 39.7 °F 35.6 °F 71% 30.41 in 10.0 mi NE 9.2 mph - N/A   Overcast
5:35 PM 44.6 °F 41.4 °F 35.6 °F 71% 30.41 in 10.0 mi NE 5.8 mph - N/A   Overcast
5:55 PM 44.6 °F 42.2 °F 37.4 °F 76% 30.42 in 10.0 mi North 4.6 mph - N/A   Overcast
6:15 PM 42.8 °F 41.1 °F 35.6 °F 76% 30.42 in 10.0 mi NNE 3.5 mph - N/A   Overcast
6:35 PM 42.8 °F 40.1 °F 37.4 °F 81% 30.43 in 10.0 mi NW 4.6 mph - 0.01 in   Overcast
6:55 PM 42.8 °F 41.1 °F 35.6 °F 76% 30.43 in 10.0 mi NW 3.5 mph - 0.01 in   Overcast
7:15 PM 41.0 °F 37.1 °F 35.6 °F 81% 30.43 in 10.0 mi NW 5.8 mph - N/A   Overcast
7:35 PM 41.0 °F 37.1 °F 35.6 °F 81% 30.45 in 10.0 mi NW 5.8 mph - 0.01 in   Overcast
7:55 PM 39.2 °F 33.6 °F 35.6 °F 87% 30.45 in 4.0 mi West 8.1 mph - 0.01 in   Overcast
8:15 PM 39.2 °F 34.2 °F 33.8 °F 81% 30.45 in 2.5 mi West 6.9 mph - N/A   Overcast
8:35 PM 39.2 °F 34.2 °F 33.8 °F 81% 30.47 in 3.0 mi West 6.9 mph - N/A   Overcast
9:15 PM 37.4 °F 33.8 °F 33.8 °F 87% 30.47 in 5.0 mi West 4.6 mph - N/A   Overcast
9:35 PM 37.4 °F 32.8 °F 32.0 °F 81% 30.48 in 3.0 mi West 5.8 mph - N/A   Overcast
9:55 PM 35.6 °F 30.7 °F 32.0 °F 87% 30.48 in 4.0 mi West 5.8 mph - N/A   Overcast
10:35 PM 35.6 °F 31.7 °F 32.0 °F 87% 30.49 in 5.0 mi West 4.6 mph - N/A   Overcast
10:55 PM 35.6 °F 31.7 °F 32.0 °F 87% 30.50 in 5.0 mi WNW 4.6 mph - N/A   Overcast
11:15 PM 35.6 °F 31.7 °F 32.0 °F 87% 30.50 in 5.0 mi WNW 4.6 mph - N/A   Overcast
11:35 PM 35.6 °F 31.7 °F 32.0 °F 87% 30.50 in 4.0 mi West 4.6 mph - N/A   Mostly Cloudy